Погода в Табоде

Филиппины     8°02′53″N   123°47′55″E
темп.,
°C
ветер,
м/с
пор.,
м/с
влажн.,
%
обл.,
%
осадки,
мм/ч
давл.,
гПа
погр.,
м
1 марта, пн
пн123:00+24св119030 0.5 101139
02:00+23зсз009215 0.7 101024
05:00+23ссв11930 0.1 101124
08:00+28св02753 0.1 1013432
11:00+33ссв225571 0.1 10121350
14:00+32св345685 0.6 10101114
17:00+28св367794 0.6 1010569
20:00+25св288949 0.9 1012381
2 марта, вт
вт223:00+24ссв12920 0.0 1013113
02:00+23ссз119328 0.1 101125
05:00+23св11940 0.1 101125
08:00+27св14779 0.1 1013547
11:00+32св245690 0.4 10131159
14:00+32св355591 0.6 1010990
17:00+27св377454 0.6 1010561
20:00+24св278535 1.2 1012270
3 марта, ср
ср323:00+23св119067 0.2 101328
02:00+22с119133 0.2 101124
05:00+22ссв11937 0.0 101125
08:00+27св267750 0.0 1013598
11:00+31св4555100 0.0 10121269
14:00+32св465269 0.0 10091032
17:00+27св510760 0.4 1009561
20:00+25св29840 0.6 1012419
4 марта, чт
чт423:00+24св15872 0.0 1013191
02:00+22св119320 0.0 101229
05:00+21св11930 0.0 101231
08:00+27св26660 0.0 1013710
11:00+31св46470 0.0 10131204
14:00+32св45460 0.0 10101148
17:00+28св49710 0.0 1010579
20:00+25св27850 0.0 1012368
5 марта, пт
пт523:00+23св11920 0.0 101226
02:00+22св11890 0.0 101125
05:00+22ссв01902 0.0 101124
08:00+28св15711 0.0 1014685
11:00+32св46490 0.0 10131407
14:00+32св57460 0.0 10101288
17:00+28св48690 0.0 1010686
20:00+25св28850 0.0 1012471